7M1JBF-13 Weather Reports


time (UTC)temp
C
wind
direction
speed
KPH
gust
KPH
rain 1hr
cm
rain 24hr
cm
rain mn
cm
humidity
%
barometer
mb
20260502210344 12 303 0.0 0.0 0.00 0.00 0.00 92 1014.1
20260502205357 12 303 0.0 0.0 0.00 0.00 0.00 92 1014.0
20260502204355 11 303 0.0 1.6 0.00 0.00 0.00 92 1014.0
20260502203333 11 304 0.0 0.0 0.00 0.00 0.00 92 1013.9
20260502202335 11 304 0.0 0.0 0.00 0.00 0.00 91 1013.9
20260502201344 11 304 0.0 0.0 0.00 0.00 0.00 91 1013.5
20260502200352 11 303 0.0 0.0 0.00 0.00 0.00 91 1013.8
20260502195334 11 303 0.0 0.0 0.00 0.00 0.00 92 1013.6
20260502194334 11 304 0.0 0.0 0.00 0.00 0.00 91 1013.5
20260502193355 11 303 0.0 0.0 0.00 0.00 0.00 92 1013.4
20260502192403 11 303 0.0 0.0 0.00 0.00 0.00 91 1013.2
20260502191400 11 303 0.0 0.0 0.00 0.00 0.00 92 1013.3
20260502190350 11 304 0.0 1.6 0.00 0.00 0.00 92 1013.4
20260502185333 10 304 0.0 0.0 0.00 0.00 0.00 92 1013.6
20260502184336 10 303 0.0 0.0 0.00 0.00 0.00 92 1013.4
20260502183348 10 304 0.0 0.0 0.00 0.00 0.00 92 1013.4
20260502182350 10 304 0.0 0.0 0.00 0.00 0.00 93 1013.7
20260502181352 10 303 0.0 0.0 0.00 0.00 0.00 92 1013.8
20260502180328 10 304 0.0 0.0 0.00 0.00 0.00 93 1013.9
20260502170340 9 303 0.0 0.0 0.00 0.00 0.00 94 1013.6
20260502164348 9 303 0.0 0.0 0.00 0.00 0.00 93 1013.7
20260502163352 9 303 0.0 0.0 0.00 0.00 0.00 92 1013.4
20260502162332 9 303 0.0 0.0 0.00 0.00 0.00 92 1013.5
20260502161343 9 303 0.0 0.0 0.00 0.00 0.00 91 1013.5
20260502160404 10 304 0.0 0.0 0.00 0.10 0.00 91 1013.5
20260502152332 10 303 0.0 0.0 0.00 0.10 0.00 89 1013.0
20260502151330 10 304 0.0 0.0 0.00 0.10 0.00 89 1013.0
20260502150402 10 303 0.0 0.0 0.00 0.61 0.03 88 1013.0
20260502130337 11 306 0.0 0.0 0.00 1.09 0.03 83 1012.0
20260502123324 12 306 0.0 0.0 0.00 1.09 0.03 80 1011.7
20260502122323 13 306 0.0 1.6 0.00 1.09 0.03 78 1011.7
20260502121333 13 306 0.0 0.0 0.00 1.09 0.03 78 1011.7
20260502120354 13 306 0.0 0.0 0.00 1.09 0.03 76 1011.6
20260502115326 14 306 0.0 0.0 0.00 1.09 0.03 73 1011.2
20260502114333 15 306 0.0 0.0 0.00 1.09 0.03 72 1010.9
20260502113333 15 306 0.0 1.6 0.00 1.09 0.03 71 1010.8
20260502112338 15 306 0.0 1.6 0.00 1.09 0.03 71 1010.7
20260502111331 15 306 0.0 0.0 0.00 1.09 0.03 69 1010.6
20260502110337 16 306 0.0 1.6 0.00 1.09 0.03 65 1010.3
20260502105339 16 262 0.0 1.6 0.00 1.09 0.03 63 1010.0
20260502104348 17 262 0.0 1.6 0.00 1.09 0.03 63 1009.8
20260502103326 17 262 0.0 1.6 0.00 1.09 0.03 61 1009.7
20260502102327 17 262 0.0 1.6 0.00 1.09 0.03 55 1009.8
20260502101326 17 266 0.0 1.6 0.00 1.09 0.03 57 1009.5
20260502100329 17 266 0.0 1.6 0.00 1.09 0.03 57 1009.5
20260502091346 19 232 0.0 0.0 0.00 1.09 0.03 55 1009.2
20260502090340 20 232 0.0 1.6 0.00 1.09 0.03 51 1008.9
20260502071331 25 242 3.2 17.7 0.00 1.09 0.03 30 1007.2
20260502070331 25 286 0.0 11.3 0.00 1.70 0.03 34 1007.0
20260502065359 25 279 3.2 12.9 0.00 1.70 0.03 30 1006.7
20260502064357 25 263 4.8 16.1 0.00 1.70 0.03 32 1006.6
20260502063335 25 284 8.0 25.7 0.00 1.70 0.03 30 1006.5
20260502062342 26 302 6.4 12.9 0.00 1.70 0.03 29 1006.3
20260502061341 26 279 3.2 14.5 0.00 1.70 0.03 30 1005.9
20260502060342 26 269 4.8 11.3 0.00 7.29 0.03 31 1005.6
20260502055355 26 278 1.6 16.1 0.00 7.29 0.03 32 1005.4
20260502054344 26 275 1.6 9.7 0.00 7.29 0.03 34 1005.4
20260502053341 26 83 4.8 9.7 0.00 7.29 0.03 31 1005.2
20260502052324 26 273 1.6 9.7 0.00 7.29 0.03 28 1005.1
20260502051324 26 238 4.8 12.9 0.00 7.29 0.03 29 1004.8
20260502050412 26 284 1.6 12.9 0.00 7.29 0.03 34 1004.8
20260502045330 27 275 4.8 12.9 0.00 10.59 0.03 30 1004.5
20260502044348 27 277 1.6 9.7 0.00 10.59 0.03 32 1004.5
20260502043331 27 279 1.6 4.8 0.00 10.59 0.03 37 1004.3
20260502042352 26 212 1.6 12.9 0.00 10.59 0.03 33 1004.1
20260502041338 26 301 3.2 16.1 0.00 10.59 0.03 33 1004.1
20260502040335 27 124 1.6 9.7 0.00 2.74 0.03 33 1003.8
20260502035346 26 147 1.6 9.7 0.00 2.74 0.03 31 1003.6
20260502034342 26 273 1.6 8.0 0.00 2.74 0.03 31 1003.5
20260502033347 25 260 4.8 17.7 0.00 2.74 0.03 26 1003.4
20260502032324 25 267 4.8 24.1 0.00 2.74 0.03 29 1003.5
20260502031342 25 282 3.2 17.7 0.00 2.74 0.03 32 1003.1
20260502030410 25 253 8.0 19.3 0.00 2.74 0.03 29 1003.3
20260502025327 25 291 4.8 17.7 0.00 5.21 0.03 34 1003.1
20260502024326 25 275 8.0 19.3 0.00 5.21 0.03 41 1002.9
20260502023330 25 286 1.6 3.2 0.00 5.21 0.03 44 1002.9
20260502022324 24 33 0.0 3.2 0.00 5.21 0.03 55 1002.7
20260502021332 23 265 0.0 6.4 0.00 5.21 0.03 56 1002.6
20260502020329 22 261 0.0 3.2 0.00 5.87 0.03 53 1002.6
20260502015329 22 359 1.6 4.8 0.00 5.87 0.03 53 1002.6
20260502014337 22 321 1.6 8.0 0.00 5.87 0.03 62 1002.5
20260502013336 22 52 1.6 4.8 0.00 5.87 0.03 60 1002.4
20260502012330 21 69 0.0 8.0 0.00 5.87 0.03 65 1002.3
20260502011402 21 33 1.6 8.0 0.00 5.87 0.03 62 1002.0
20260502010335 21 315 1.6 9.7 0.00 6.35 0.03 59 1001.7
20260502005334 21 267 0.0 11.3 0.00 6.35 0.03 63 1001.7
20260502004342 21 275 4.8 16.1 0.00 6.35 0.03 60 1001.5
20260502003346 20 296 6.4 19.3 0.00 6.35 0.03 55 1001.2
20260502002402 20 291 6.4 16.1 0.00 6.35 0.03 55 1001.2
20260502001349 20 324 6.4 14.5 0.00 6.35 0.03 53 1001.2
20260502000349 20 297 4.8 16.1 0.00 6.96 0.03 53 1001.1
20260501235347 20 279 6.4 16.1 0.00 6.96 0.03 51 1001.1
20260501234347 19 294 4.8 17.7 0.00 6.96 0.03 55 1000.9
20260501233346 18 298 6.4 14.5 0.00 6.96 0.03 57 1000.8
20260501232327 18 294 4.8 14.5 0.00 6.96 0.03 62 1000.5
20260501231326 17 280 3.2 16.1 0.00 6.96 0.03 66 1000.3
20260501230341 17 277 3.2 9.7 0.00 7.29 0.03 68 1000.1
20260501225340 17 19 0.0 0.0 0.00 7.29 0.03 70 1000.2
20260501224340 16 321 1.6 4.8 0.00 7.29 0.03 73 1000.3
20260501223349 16 310 0.0 6.4 0.00 7.29 0.03 74 1000.2
20260501222325 15 30 1.6 6.4 0.00 7.29 0.03 74 999.9
20260501221338 14 336 0.0 6.4 0.00 7.29 0.03 80 999.7
20260501220326 13 290 0.0 4.8 0.00 7.37 0.03 84 999.3
20260501215325 12 287 0.0 1.6 0.00 7.37 0.03 89 999.3
20260501214356 12 287 0.0 0.0 0.00 7.37 0.03 90 999.1
20260501213334 12 287 0.0 1.6 0.00 7.37 0.03 88 999.0
20260501212337 12 287 0.0 1.6 0.00 7.37 0.03 85 999.1